Regional Weather Roundup
Issued by NWS Charleston, SC

Current Version | Previous Version | Graphics & Text | Print | Product List | Glossary On
Versions: 1 2 3 4 5 6 7 8 9 10 11 12 13 14 15 16 17 18 19 20 21 22 23 24 25 26 27 28 29 30 31 32 33 34 35 36 37 38 39 40 41 42 43 44 45 46 47 48 49 50
000 ASUS42 KCHS 291927 RWRCHS REGIONAL WEATHER ROUNDUP NATIONAL WEATHER SERVICE CHARLESTON SC 300 PM EDT SAT AUG 29 2015 NOTE: "FAIR" INDICATES FEW OR NO CLOUDS BELOW 12,000 FEET WITH NO SIGNIFICANT WEATHER AND/OR OBSTRUCTIONS TO VISIBILITY. NOT ALL STATIONS ARE QUALITY CONTROLLED BY THE NATIONAL WEATHER SERVICE. USE DATA WITH CAUTION...ESPECIALLY DEWPOINT OBSERVATIONS. SCZ027-030-031-034>040-042>050-292000- ...SOUTHEAST SOUTH CAROLINA... CITY SKY/WX TMP DP RH WIND PRES REMARKS N CHARLESTON CLOUDY 79 67 66 N7 30.16S WATERFRONT PRK N/A 81 72 74 N9 30.13F MOUNT PLEASANT FAIR 82 72 69 CALM 30.15S JOHNS ISLAND MOCLDY 81 72 74 N7 30.14F PINOPOLIS N/A 84 61 45 NE8 30.10R MONCKS CORNER FAIR 81 66 61 CALM 30.16S SUMMERVILLE LGT RAIN 79 66 65 CALM 30.17F BEAUFORT MCAS CLOUDY 81 71 71 NE10 30.15F BEAUFORT ARPT FAIR 81 72 74 NE12 30.15F HILTON HEAD IS MOSUNNY 79 70 73 N8 30.17F WALTERBORO DRIZZLE 81 63 54 NE7 30.16F ALLENDALE FAIR 84 61 45 VRB7 30.15F ...SOUTHERN MIDLANDS AND PEE DEE... CITY SKY/WX TMP DP RH WIND PRES REMARKS GEORGETOWN NOT AVBL KINGSTREE NOT AVBL ORANGEBURG CLOUDY 85 57 38 E8 30.17F BARNWELL FAIR 86 57 37 E6 30.16F AIKEN FAIR 84 52 32 N9 30.20F MANNING FAIR 81 54 39 NE7 30.16F COLUMBIA PTSUNNY 89 52 28 E12 30.16F SUMTER CLOUDY 86 55 34 NE13 30.16F FLORENCE CLOUDY 86 56 35 E12 30.17F MYRTLE BEACH PTSUNNY 84 68 58 N8 30.17F N MYRTLE BEACH MOSUNNY 86 68 54 NE8 30.15F $$ GAZ063-065-086>088-099>101-113>116-118-119-134>141-150-292000- ...SOUTHEAST GEORGIA... CITY SKY/WX TMP DP RH WIND PRES REMARKS SAVANNAH ARPT PTSUNNY 83 70 64 NE13 30.14F HUNTER AAF MOSUNNY 81 76 86 NE9 30.11F FORT STEWART MOSUNNY 83 72 68 E10 30.11S STATESBORO MOSUNNY 85 73 65 E5 30.13F HX 91 SYLVANIA PTCLDY 87 71 60 E8 30.15F HX 92 CLAXTON NOT AVBL ...CSRA...CENTRAL AND FAR SOUTHEAST GEORGIA... CITY SKY/WX TMP DP RH WIND PRES REMARKS THOMSON CLOUDY 88 64 44 E13G18 30.19F AUGUSTA-BUSH CLOUDY 84 61 45 E8 30.15F AUGUSTA-DANIEL CLOUDY 85 61 44 E9 30.17F SWAINSBORO FAIR 86 70 58 NE9 30.14F HX 90 VIDALIA HVY RAIN 75 72 88 NW7 30.13F EASTMAN CLOUDY 81 77 87 E8 30.15F HAZLEHURST LGT RAIN 81 73 76 N7 30.11F ALMA PTSUNNY 85 71 63 E8 30.10F HX 90 WAYCROSS PTSUNNY 90 75 62 E9 30.08F HX 100 JESUP MOCLDY 88 75 66 E10 30.10F HX 97 BAXLEY PTSUNNY 81 75 83 N9 30.10F BRUNSWICK PTSUNNY 84 73 70 NE13 30.10F HX 91 SAINT SIMONS PTSUNNY 84 72 67 E13 30.10F $$ SCZ027-028-034-036>038-045-046-048>050-GAZ119-141-292000- ...LAKE AND SUPPLEMENTAL COASTAL OBSERVATIONS... STATION/POSITION TIME TEMP WIND PRES WAVE SWELL AIR SEA DIR/SP/G HT/PER HT/PER/DIR (UTC) (F) (DEG/KT/KT) (MB) (FT/S) (FT/S/D) UPR LAKE MARION NOT AVBL WINYAH BAY 1800 81 60/ 9 1021.0 LAKE MURRAY 1800 81 50/ 1/ 7 1022.0F ACE BASIN NERRS NOT AVBL FORT PULASKI NOT AVBL SAPELO ISLAND 1900 84 50/ 12 1020.0S $$ ANZ835-935-AMZ111-154-330-350-352-354-370-450-454-472-292000- ...C-MAN AND BUOY OBSERVATIONS... STATION/POSITION TIME TEMP WIND PRES WAVE SWELL AIR SEA DIR/SP/G HT/PER HT/PER/DIR (UTC) (F) (DEG/KT/KT) (MB) (FT/S) (FT/S/D) BUOY 41004 1850 80 85 30/ 14/ 16 1020.1F 4/11 3/11 BUOY 41008 1850 79 85 50/ 14/ 17 1020.0F 4/11 2/110/11 FOLLY BEACH CMAN 1900 81 60/ 9/ 10 1021.1F CAPERS NEARSHORE 1808 80 60/ 14/ 17 1021.4F FRIPP NEARSHORE 1800 81 40/ 12/ 14 1021.0R STATION/POSITION TIME TEMP WIND PRES WAVE SWELL AIR SEA DIR/SP/G HT/PER HT/PER/DIR (UTC) (F) (DEG/KT/KT) (MB) (FT/S) (FT/S/D) 5E ST. MARYS GA 1821 86 N/A 3/11 2/120/11 FRYING PAN BUOY 1850 80 81 20/ 16/ 17 1020.8F 4/ 6 2/110/10 BUOY 41025 1850 78 83 20/ 19/ 23 1019.8F 6/11 5/100/11 CAPE LOOKOUT NC 1900 80 40/ 18/ 22 1020.3F BUOY 41002 1850 81 84 300/ 10/ 14 1020.8F 4/10 3/110/10 BUOY 41010 1820 85 86 110/ 10/ 12 1019.4F ST AUGUSTINE FL 1900 83 87 80/ 9/ 10 1019.3F $$

USA.gov is the U.S. government's official web portal to all federal, state and local government web resources and services.